Location: El Carrer d�Abaix
(41.5797°N, 2.1791°E)
Time: 23:59:40
(UTC+00:00)

STARLINK-1378 - Pass Details

Date: 07 October 2020
Orbit: 548 x 551 km, 53.0° (Epoch: 27 October)

Event Time Altitude Azimuth Distance (km) Brightness Sun altitude
Exits shadow 02:48:28 12° 32° (NNE) 1,677 6.6 -34.7°
Drops below altitude 10° 02:48:57 10° 36° (NE) 1,827 6.9 -34.6°
Sets 02:51:31 0° 51° (NE) 2,723 8.2 -34.2°
